This demonstration page uses our WeatherBlox Daily Observations layout. Learn more.

Left ArrowRight Arrow

31.31129, -92.44514

Hourly Observations for December 16, 2015

Temp ( °F °C ) Dew Point ( °F °C ) Humidity (%) Winds ( mph kmh ) Pressure ( in mb ) Visibility ( mi km ) Precip ( " mm )
12:53 am 00:53 Clear 60 15.6 56 13.3 86 86 SE 14 22 29.80 1009 8 13 0.00 0.00
1:53 am 01:53 Clear 59 15 57 13.9 93 93 SE 9 15 29.79 1009 7 11 0.00 0.00
2:53 am 02:53 Clear 60 15.6 58 14.4 93 93 SE 13 20 29.78 1008 7 11 0.00 0.00
3:53 am 03:53 Mostly Clear with Mist and Fog 59 15 58 14.4 96 96 SE 9 15 29.77 1008 6 10 0.00 0.00
4:08 am 04:08 Mostly Cloudy with Mist and Fog 60 15.6 59 15 96 96 SE 9 15 29.77 1008 6 10 0.00 0.00
4:29 am 04:29 Cloudy with Mist and Fog 61 16.1 60 15.6 97 97 SE 8 13 29.77 1008 5 8 0.00 0.00
4:53 am 04:53 Cloudy with Mist and Fog 61 16.1 60 15.6 97 97 SE 5 7 29.77 1008 3 5 0.00 0.00
5:02 am 05:02 Cloudy with Mist and Fog 61 16.1 60 15.6 97 97 SE 5 7 29.77 1008 3 4 0.00 0.00
5:22 am 05:22 Cloudy with Mist and Fog 61 16.1 61 16.1 100 100 SE 6 9 29.77 1008 2 2 0.00 0.00
5:53 am 05:53 Cloudy with Mist and Fog 62 16.7 62 16.7 100 100 SE 8 13 29.77 1008 1 2 0.00 0.00
6:09 am 06:09 Mostly Cloudy with Fog 63 17.2 63 17.2 100 100 SE 6 9 29.77 1008 1 1 0.00 0.00
6:24 am 06:24 Mostly Cloudy with Fog 63 17.2 63 17.2 100 100 SE 7 11 29.77 1008 0 0 0.00 0.00
6:53 am 06:53 Mostly Cloudy with Fog 63 17.2 63 17.2 100 100 Calm 29.79 1009 0 0 0.00 0.00
7:53 am 07:53 Mostly Cloudy with Fog 62 16.7 62 16.7 100 100 SE 3 6 29.81 1009 0 0 0.00 0.00
8:16 am 08:16 Cloudy with Light Rain 62 16.7 62 16.7 100 100 NW 10 17 29.83 1010 1 2 0.00 0.03
8:33 am 08:33 Cloudy with Light Rain 62 16.7 62 16.7 100 100 NNW 9 15 29.83 1010 2 2 0.00 0.03
8:50 am 08:50 Cloudy with Rain 63 17 63 17 100 100 NNW 8 13 29.83 1010 2 3 0.08 2.03
8:53 am 08:53 Cloudy with Light Rain 62 16.7 62 16.7 100 100 NNW 7 11 29.84 1011 3 4 0.08 2.03
9:01 am 09:01 Cloudy with Light Rain 62 16.7 62 16.7 100 100 NNW 8 13 29.83 1010 5 8 0.00 0.03
9:12 am 09:12 Cloudy with Light Rain 63 17.2 63 17.2 100 100 NNW 6 9 29.83 1010 8 13 0.00 0.03
9:53 am 09:53 Cloudy 64 17.8 63 17.2 96 96 NNW 7 11 29.86 1011 10 16 0.00 0.03
10:07 am 10:07 Mostly Cloudy 64 17.8 62 16.7 93 93 NNW 8 13 29.85 1011 10 16 0.00 0.00
10:26 am 10:26 Mostly Cloudy 64 17.8 61 16.1 90 90 NNW 8 13 29.83 1010 10 16 0.00 0.00
10:53 am 10:53 Mostly Cloudy 65 18.3 62 16.7 90 90 NNW 8 13 29.85 1011 10 16 0.00 0.00
11:49 am 11:49 Cloudy 64 18 61 16 88 88 NNW 13 20 29.83 1010 10 16 0.00 0.00
11:53 am 11:53 Cloudy 64 17.8 61 16.1 90 90 NNW 10 17 29.82 1010 10 16 0.00 0.00
12:25 pm 12:25 Cloudy 65 18.3 60 15.6 84 84 NNW 10 17 29.80 1009 10 16 0.00 0.03
12:53 pm 12:53 Mostly Cloudy 65 18.3 60 15.6 84 84 NW 13 20 29.81 1010 10 16 0.00 0.03
1:13 pm 13:13 Cloudy 65 18.3 60 15.6 84 84 NNW 10 17 29.80 1009 10 16 0.00 0.00
1:23 pm 13:23 Cloudy 64 17.8 59 15 84 84 NNW 12 19 29.80 1009 10 16 0.00 0.00
1:53 pm 13:53 Mostly Cloudy 66 18.9 57 13.9 73 73 NNW 14 22 29.78 1009 10 16 0.00 0.00
2:53 pm 14:53 Cloudy 64 17.8 57 13.9 78 78 NW 9 15 29.79 1009 10 16 0.00 0.00
3:53 pm 15:53 Cloudy 63 17.2 53 11.7 70 70 NNW 13 20 29.80 1009 10 16 0.00 0.00
4:53 pm 16:53 Cloudy 60 15.6 48 8.9 65 65 NNW 8 13 29.81 1009 10 16 0.00 0.00
5:53 pm 17:53 Cloudy 58 14.4 48 8.9 70 70 NNW 5 7 29.82 1010 10 16 0.00 0.00
6:53 pm 18:53 Mostly Cloudy 58 14.4 48 8.9 70 70 N 10 17 29.81 1010 10 16 0.00 0.00
7:53 pm 19:53 Mostly Cloudy 56 13.3 49 9.4 77 77 NW 7 11 29.84 1011 10 16 0.00 0.00
8:53 pm 20:53 Cloudy 57 13.9 47 8.3 69 69 NNW 10 17 29.86 1011 10 16 0.00 0.00
9:53 pm 21:53 Mostly Cloudy 55 12.8 45 7.2 69 69 NW 8 13 29.88 1012 10 16 0.00 0.00
10:53 pm 22:53 Cloudy 54 12.2 42 5.6 64 64 NW 8 13 29.90 1013 10 16 0.00 0.00
11:53 pm 23:53 Cloudy 54 12.2 40 4.4 59 59 NW 12 19 29.91 1013 10 16 0.00 0.00

Powered by AerisWeather